weather.gov     
National Weather Service

Regional Weather Roundup
NWS Homepage
This page is being discontinued on March 12, 2014.
The same data is available at this site. Please update your bookmarks.
Thank you, and we apologize for the inconvenience.
Please send an email to SR-SRH.Webmaster@noaa.gov with any concerns.


Current Version
Previous Version:    01  02  03  04  05  06  07  08  09  10  11  12  13  14  15  16  17  18  19  20  21  22  23  24  25  26  27  
[Printable]
460
ASUS41 KPHI 231010
RWRPHI

REGIONAL WEATHER ROUNDUP
NATIONAL WEATHER SERVICE MOUNT HOLLY NJ
600 AM EDT TUE SEP 23 2014

NOTE:  "FAIR" INDICATES FEW OR NO CLOUDS BELOW 12,000 FEET WITH NO
SIGNIFICANT WEATHER AND/OR OBSTRUCTIONS TO VISIBILITY.

 * = STATION DOES NOT REPORT PRECIPITATION (E.G. RAIN, SNOW, ETC.)
        OR FOG.

NJZ015>026-231100-
SOUTHERN NEW JERSEY

CITY           SKY/WX    TMP DP  RH WIND       PRES   REMARKS
POMONA         CLEAR     41  38  89 NW7       30.27R
RIO GRANDE*    CLEAR     48  39  71 N5        30.27S
MILLVILLE      CLEAR     42  40  92 CALM      30.27R
WRIGHTSTOWN    CLEAR     46  40  78 CALM      30.24R
MOUNT HOLLY    CLEAR     48  40  73 CALM      30.27R
TRENTON        CLEAR     44  38  79 CALM      30.26R

$$
NJZ001>014-231100-
NORTHERN NEW JERSEY

CITY           SKY/WX    TMP DP  RH WIND       PRES   REMARKS
SUSSEX         CLEAR     39  37  92 CALM      30.26R
ANDOVER*         N/A     40  39  97 CALM      30.26R
MORRISTOWN     CLEAR     41  37  87 CALM      30.26R
NEWARK         PTCLDY    51  40  65 NW3       30.25R
TETERBORO      CLEAR     49  39  68 CALM      30.24R
CALDWELL       CLEAR     43  38  82 CALM      30.26R
SOMERVILLE     CLEAR     39  37  92 CALM      30.25R
ALLAIRE*       CLEAR     45  37  76 NW5       30.25R
TOMS RIVER*    CLEAR     37  34  87 CALM      30.27R

$$
PAZ043-044-047-054-055-060>062-066>071-231100-
EASTERN PENNSYLVANIA

CITY           SKY/WX    TMP DP  RH WIND       PRES   REMARKS
PHILADELPHIA   CLEAR     53  40  61 VRB5      30.28R
NORTH PHILA    CLEAR     49  38  65 W5        30.28R
BLUE BELL      CLEAR     46  41  81 CALM      30.26R
DOYLESTOWN     CLEAR     45  40  82 CALM      30.26R
QUAKERTOWN*    CLEAR     46  39  76 N6        30.27R
POTTSTOWN      CLEAR     44  40  85 CALM      30.29R
LANCASTER      CLEAR     44  39  82 SW5       30.28R
COATESVILLE    CLEAR     45  39  81 NW8       30.28R
READING        CLEAR     45  40  82 CALM      30.28R
ALLENTOWN      CLEAR     43  38  82 W5        30.27R
MOUNT POCONO   CLEAR     44  38  79 NW5       30.25R
HAZLETON       CLEAR     45  39  81 W6        30.29R
WILKES BARRE   CLEAR     42  39  89 E6        30.28R

$$
DEZALL-MDZ008-012-015-019-020-231100-
DELAWARE AND EASTERN MARYLAND

CITY           SKY/WX    TMP DP  RH WIND       PRES   REMARKS
WILMINGTON     CLEAR     45  42  89 NW6       30.28R
DOVER          PTCLDY    48  42  81 NW6       30.25R
GEORGETOWN     PTCLDY    52  42  69 N3        30.27R
EASTON         PTCLDY    49  47  92 CALM      30.31R
PATUXENT       CLOUDY    58  43  57 NE12      30.27R
OCEAN CITY     PTCLDY    51  44  77 NW5       30.26R
WALLOPS ISLAND MOCLDY    53  45  74 N8        30.27R
CAMBRIDGE      PTCLDY    55  45  67 N6        30.27R
SALISBURY      PTCLDY    52  43  71 N5        30.27R

$$
PAZ001-021-NYZ056-072-MDZ011-DCZ001-231100-
OTHER NEARBY LOCATIONS

CITY           SKY/WX    TMP DP  RH WIND       PRES   REMARKS
HARRISBURG     CLEAR     50  42  74 NW7       30.29R
STATE COLLEGE  CLEAR     41  39  93 CALM      30.30R
WILLIAMSPORT   PTCLDY    42  38  85 NW3       30.29R
BINGHAMTON     CLEAR     43  39  86 VRB5      30.26R
NEW YORK CITY  CLEAR     52  39  61 CALM      30.27R
BALTIMORE      PTCLDY    48  43  82 NW6       30.28S
WASHINGTON DC  PTCLDY    55  42  61 N6        30.30R

$$




U.S. Dept. of Commerce
NOAA National Weather Service
1325 East West Highway
Silver Spring, MD 20910
E-mail: w-nws.webmaster@noaa.gov
Page last modified: May 16, 2007
NATIONAL WEATHER SERVICE: for Safety, for Work, for Fun - FOR LIFE